COSMOS 2302

导读 | 星芒AI

COSMOS 2302 是俄罗斯于2002年发射的一颗军用通信卫星,属于俄罗斯的“宇宙”卫星系列。该卫星由俄罗斯航天部队运营,主要用于军事通信和情报传输。COSMOS 2302 采用 Ekspress 系列卫星平台,运行在地球同步轨道上,提供安全、稳定的通信服务。由于其军事用途,该卫星的具体功能和性能细节未对外公开。作为俄罗斯空间战略的一部分,COSMOS 2302 在提升俄军通信能力方面发挥了重要作用。

基本信息
目录编号:
23444
目录名称:
COSMOS 2302
国际标识:
1994-086D
轨道中心:
EARTH
卫星名称:
COSMOS 2302
卫星全名:
--
卫星状态:
在轨 (已飞行11312 天)
发射日期:
1994-12-26 UTC
国别 :
俄罗斯(独联体) (CIS)
星等 :
--
轨道信息
数据来源 国际轨道数据 AOE轨道数据
星历时间 2025-12-15T03:19:37+0800
23小时前
查看轨道信息
2025-12-13T12:00:00+0800
2天前
查看轨道信息
半长轴 7795.854km 7795.855km
偏心率 0.0006521 0.0006425
轨道倾角 82.566° 82.565°
近地点辐角 233.929° 236.781°
升交点赤经 84.932° 85.978°
平近点角 247.166° 7.741°
近地点 1412.635km 1412.711km
远地点 1422.803km 1422.729km
周期 114.171分钟 114.171分钟
每日圈数 12.612677 12.612674
详细信息
使用方式:
暂无
2D轨道图
3D轨道图
轨道高度分析图
轨道倾角分析图
轨道综合分析图
查看轨道综合分析图